Home   Weather   Sion   Past weeks

Flag for Switzerland Past Weather in Sion, Valais, Switzerland — Yesterday and Last 2 Weeks

Now
61 °F

Clear.


Feels Like: 61 °F
Forecast: 61 / 83 °F
Wind: 2 mph from East

Location: Sion

Current Time: May 27, 2017 at 6:25:49 am

Latest Report: May 27, 2017 at 5:00 am


Visibility: 16 mi

Pressure: 30.09 "Hg (28.32 "Hg at 514m altitude)

Humidity: 71%

Dew Point: 52 °F

Location of SionLocation

Past Weather in Sion — Graph

°F

Sion Temperature Yesterday

Maximum temperature yesterday: 83 °F (at 4:00 pm)
Minimum temperature yesterday: 55 °F (at 6:00 am)
Average temperature yesterday: 69 °F

High & Low Weather Summary for the Past Weeks

 TemperatureHumidityPressure
High84 °F (May 17, 4:00 pm)94% (May 13, 12:00 am)30.42 "Hg (May 13, 12:00 am)
Low44 °F (May 21, 4:00 am)21% (May 15, 4:00 pm)29.58 "Hg (May 12, 3:00 pm)
Average64 °F58%30.07 "Hg
* Reported May 12 5:00 am — May 27 5:00 am, Sion. Weather by CustomWeather, © 2017

Note: Actual official high and low records may vary slightly from our data, if they occured in-between our weather recording intervals... More about our weather records

Advertising

Sion Weather History for the Previous 24 Hours

Scroll right to see more
 ConditionsComfort  
Time TempWeatherWind HumidityBarometerVisibility
5:00 am
Sat, May 27
61 °FClear.2 mph71%30.09 "Hg16 mi
4:00 am61 °FCool.1 mph74%30.08 "HgN/A
3:00 am64 °FMild.3 mph67%30.06 "HgN/A
2:00 am63 °FClear.1 mph75%30.05 "Hg16 mi
1:00 am65 °FMild.2 mph69%30.04 "HgN/A
12:00 am67 °FMild.1 mph64%30.01 "HgN/A
11:00 pm
Fri, May 26
72 °FClear.2 mph52%29.98 "Hg19 mi
10:00 pm74 °FMild.2 mph49%29.94 "HgN/A
9:00 pm75 °FMild.7 mph46%29.91 "HgN/A
8:00 pm78 °FWarm.15 mph43%29.88 "HgN/A
7:00 pm81 °FPleasantly warm.18 mph38%29.85 "HgN/A
5:00 pm82 °FSunny.21 mph37%29.85 "Hg19 mi
4:00 pm83 °FPleasantly warm.18 mph36%29.86 "HgN/A
3:00 pm81 °FPleasantly warm.15 mph36%29.90 "HgN/A
2:00 pm80 °FSunny.16 mph37%29.93 "Hg19 mi
1:00 pm76 °FMild.13 mph40%29.96 "HgN/A
12:00 pm76 °FMild.6 mph36%29.98 "HgN/A
11:00 am71 °FSunny.3 mph43%30.01 "Hg19 mi
10:00 am69 °FMild.2 mph49%30.03 "HgN/A
9:00 am65 °FMild.3 mph52%30.06 "HgN/A
8:00 am61 °FSunny.1 mph62%30.08 "Hg19 mi
7:00 am57 °FCool.1 mph77%30.09 "HgN/A
6:00 am55 °FCool.1 mph77%30.08 "HgN/A
Weather by CustomWeather, © 2017

See weather overviewHow to use our weather pages